Jamestown, NY

12:40 PM EDT on June 29, 2017 (GMT -0400)
Chautauqua County-Jamestown

Weather History for KJHW - February, 2012

Change the Weather History Date:

Monday, February 6, 2012

  Actual Average Record
Temperature  
Mean Temperature 37 °F -  
Max Temperature 44 °F 31 °F 54 °F (1991)
Min Temperature 30 °F 8 °F -16 °F (1981)
Degree Days  
Heating Degree Days 28    
Moisture  
Dew Point 25 °F    
Average Humidity 62    
Maximum Humidity 86    
Minimum Humidity 43    
Precipitation  
Precipitation 0.00 in - - ()
Sea Level Pressure  
Sea Level Pressure 30.02 in    
Wind  
Wind Speed 13 mph (WSW)    
Max Wind Speed 16 mph    
Max Gust Speed 22 mph    
Visibility 10 miles    
Events      
Averages and records for this station are not official NWS values.
T = Trace of Precipitation, MM = Missing Value Source: NWS Daily Summary

Daily Weather History Graph

Daily Weather History Graph

Search for Another Location

Airport or City:

Trip Planner

Search our weather history database for the weather conditions in past years. The results will help you decide how hot, cold, wet, or windy it might be!

Date:

Astronomy

Feb. 06, 2012 Rise Set
Actual Time 7:25 AM EST 5:37 PM EST
Civil Twilight 6:55 AM EST 6:06 PM EST
Nautical Twilight 6:22 AM EST 6:40 PM EST
Astronomical Twilight 5:50 AM EST 7:12 PM EST
Moon 4:39 PM EST (2/6) 6:16 AM EST (2/6)
Length of Visible Light 11h 10m
Length of Day
10h 12m
Waxing Gibbous, 98% of the Moon is Illuminated
Feb 6
Waxing Gibbous
Feb 7
Full
Feb 14
Last Quarter
Feb 21
New
Feb 29
First Quarter

Hourly Weather History & Observations

Time (EST) Temp. Windchill Dew Point Humidity Pressure Visibility Wind Dir Wind Speed Gust Speed Precip Events Conditions
8:55 AM 30.2 °F 19.3 °F 26.6 °F 86% 30.09 in 8.0 mi SW 15.0 mph - N/A   Clear
9:15 AM 30.2 °F 18.9 °F 26.6 °F 86% 30.09 in 9.0 mi SW 16.1 mph - N/A   Clear
9:35 AM 32.0 °F 22.1 °F 26.6 °F 80% 30.09 in 10.0 mi SW 13.8 mph - N/A   Clear
9:55 AM 33.8 °F 23.9 °F 26.6 °F 75% 30.08 in 10.0 mi WSW 15.0 mph 20.7 mph N/A   Clear
10:15 AM 33.8 °F 23.5 °F 26.6 °F 75% 30.07 in 10.0 mi WSW 16.1 mph 19.6 mph N/A   Clear
10:35 AM 35.6 °F 26.6 °F 26.6 °F 70% 30.07 in 10.0 mi WSW 13.8 mph 18.4 mph N/A   Clear
10:55 AM 37.4 °F 28.9 °F 26.6 °F 65% 30.07 in 10.0 mi WSW 13.8 mph 18.4 mph N/A   Clear
11:15 AM 37.4 °F 29.8 °F 26.6 °F 65% 30.06 in 10.0 mi WSW 11.5 mph - N/A   Clear
11:35 AM 39.2 °F 32.0 °F 24.8 °F 56% 30.05 in 10.0 mi WSW 11.5 mph 16.1 mph N/A   Clear
11:55 AM 41.0 °F 33.9 °F 24.8 °F 53% 30.05 in 10.0 mi SW 12.7 mph 17.3 mph N/A   Clear
12:15 PM 41.0 °F 33.5 °F 24.8 °F 53% 30.04 in 10.0 mi WSW 13.8 mph 18.4 mph N/A   Clear
12:35 PM 42.8 °F 35.1 °F 24.8 °F 49% 30.03 in 10.0 mi WSW 16.1 mph - N/A   Clear
12:55 PM 42.8 °F 36.6 °F 24.8 °F 49% 30.02 in 10.0 mi WSW 11.5 mph 19.6 mph N/A   Clear
1:15 PM 42.8 °F 37.0 °F 24.8 °F 49% 30.02 in 10.0 mi WSW 10.4 mph - N/A   Clear
1:35 PM 42.8 °F 35.4 °F 23.0 °F 46% 30.01 in 10.0 mi WSW 15.0 mph - N/A   Clear
1:55 PM 44.6 °F 38.1 °F 24.8 °F 46% 30.01 in 10.0 mi WSW 13.8 mph - N/A   Clear
2:15 PM 44.6 °F 38.1 °F 24.8 °F 46% 30.00 in 10.0 mi WSW 13.8 mph - N/A   Clear
2:35 PM 44.6 °F 38.4 °F 24.8 °F 46% 29.99 in 10.0 mi WSW 12.7 mph 20.7 mph N/A   Clear
2:55 PM 44.6 °F 37.4 °F 23.0 °F 43% 29.99 in 10.0 mi WSW 16.1 mph - N/A   Clear
3:15 PM 44.6 °F 38.1 °F 24.8 °F 46% 29.99 in 10.0 mi WSW 13.8 mph 19.6 mph N/A   Clear
3:35 PM 44.6 °F 38.4 °F 23.0 °F 43% 29.98 in 10.0 mi WSW 12.7 mph 18.4 mph N/A   Clear
3:55 PM 44.6 °F 37.4 °F 23.0 °F 43% 29.98 in 10.0 mi WSW 16.1 mph 21.9 mph N/A   Clear
4:15 PM 44.6 °F 37.4 °F 23.0 °F 43% 29.98 in 10.0 mi WSW 16.1 mph 20.7 mph N/A   Clear
4:35 PM 42.8 °F 36.6 °F 24.8 °F 49% 29.98 in 10.0 mi WSW 11.5 mph - N/A   Clear
4:55 PM 42.8 °F 37.5 °F 23.0 °F 46% 29.98 in 10.0 mi SW 9.2 mph - N/A   Clear
5:15 PM 41.0 °F 34.3 °F 23.0 °F 49% 29.98 in 10.0 mi WSW 11.5 mph - N/A   Clear
5:35 PM 39.2 °F 32.0 °F 23.0 °F 52% 29.98 in 10.0 mi WSW 11.5 mph - N/A   Clear
5:55 PM 39.2 °F 32.0 °F 23.0 °F 52% 29.99 in 10.0 mi WSW 11.5 mph - N/A   Clear
6:15 PM 39.2 °F 33.0 °F 23.0 °F 52% 29.99 in 10.0 mi West 9.2 mph - N/A   Clear
6:35 PM 37.4 °F 31.4 °F 24.8 °F 60% 29.99 in 10.0 mi West 8.1 mph - N/A   Clear
6:55 PM 37.4 °F 32.1 °F 26.6 °F 65% 29.99 in 10.0 mi West 6.9 mph - N/A   Clear
7:15 PM 35.6 °F 28.6 °F 26.6 °F 70% 30.00 in 10.0 mi WNW 9.2 mph - N/A   Clear
7:35 PM 35.6 °F 29.2 °F 24.8 °F 65% 30.00 in 10.0 mi WNW 8.1 mph - N/A   Clear
7:55 PM 35.6 °F 29.2 °F 26.6 °F 70% 30.01 in 10.0 mi West 8.1 mph - N/A   Clear
8:15 PM 35.6 °F 28.0 °F 26.6 °F 70% 30.01 in 10.0 mi West 10.4 mph - N/A   Clear
8:35 PM 33.8 °F 27.0 °F 26.6 °F 75% 30.01 in 10.0 mi West 8.1 mph - N/A   Clear
8:55 PM 33.8 °F 27.7 °F 26.6 °F 75% 30.01 in 10.0 mi West 6.9 mph - N/A   Clear
9:15 PM 33.8 °F 27.7 °F 26.6 °F 75% 30.01 in 10.0 mi West 6.9 mph - N/A   Clear
9:35 PM 33.8 °F 27.0 °F 26.6 °F 75% 30.01 in 10.0 mi West 8.1 mph - N/A   Clear
9:55 PM 33.8 °F 26.4 °F 26.6 °F 75% 30.01 in 10.0 mi West 9.2 mph - N/A   Clear
10:15 PM 32.0 °F 24.2 °F 26.6 °F 80% 30.01 in 10.0 mi WSW 9.2 mph - N/A   Clear
10:35 PM 32.0 °F 24.2 °F 26.6 °F 80% 30.00 in 10.0 mi WSW 9.2 mph - N/A   Clear
10:55 PM 33.8 °F 25.3 °F 26.6 °F 75% 30.00 in 10.0 mi West 11.5 mph - N/A   Clear
11:15 PM 33.8 °F 26.4 °F 26.6 °F 75% 30.00 in 10.0 mi West 9.2 mph - N/A   Clear
11:35 PM 33.8 °F 26.4 °F 26.6 °F 75% 30.00 in 10.0 mi West 9.2 mph - N/A   Clear
11:55 PM 33.8 °F 25.8 °F 26.6 °F 75% 30.01 in 10.0 mi West 10.4 mph - N/A   Clear